Météo par heure à Jundiá

Ce jour, 20 Juin, Dimanche

Heure Température Précipitation Vent Pression Humidité
00:00 +25°C° 0.2 mm 2 m/s 753 mmHg 83%
01:00 +24°C° 0.2 mm 2 m/s 753 mmHg 84%
02:00 +24°C° 0.3 mm 2 m/s 753 mmHg 87%
03:00 +24°C° 0.3 mm 2 m/s 753 mmHg 90%
04:00 +23°C° 0.3 mm 2 m/s 752 mmHg 93%
05:00 +23°C° 0.1 mm 1 m/s 753 mmHg 93%
06:00 +23°C° 0.1 mm 1 m/s 753 mmHg 94%
07:00 +23°C° 0.1 mm 1 m/s 753 mmHg 94%
08:00 +24°C° 0.1 mm 1 m/s 753 mmHg 89%
09:00 +26°C° 0.1 mm 1 m/s 754 mmHg 83%
10:00 +28°C° 0.1 mm 1 m/s 754 mmHg 78%
11:00 +28°C° 1 mm 1 m/s 753 mmHg 78%
12:00 +28°C° 1 mm 2 m/s 753 mmHg 78%
13:00 +28°C° 1 mm 3 m/s 753 mmHg 79%
14:00 +28°C° 0.7 mm 3 m/s 752 mmHg 78%
15:00 +28°C° 0.7 mm 3 m/s 752 mmHg 76%
16:00 +29°C° 0.7 mm 3 m/s 751 mmHg 75%
17:00 +27°C° 0.1 mm 2 m/s 752 mmHg 79%
18:00 +26°C° 0.1 mm 2 m/s 752 mmHg 84%
19:00 +25°C° 0.1 mm 1 m/s 752 mmHg 88%
20:00 +25°C° 0 mm 1 m/s 752 mmHg 90%
21:00 +22°C° 0 mm 0 m/s 753 mmHg 91%
22:00 +22°C° 0 mm 0 m/s 753 mmHg 92%
23:00 +22°C° 0.2 mm 0 m/s 753 mmHg 93%

Demain, 21 Juin, Lundi

Heure Température Précipitation Vent Pression Humidité
00:00 +22°C° 0.2 mm 0 m/s 753 mmHg 93%
01:00 +22°C° 0.2 mm 0 m/s 753 mmHg 94%
02:00 +22°C° 0.1 mm 0 m/s 752 mmHg 94%
03:00 +22°C° 0.1 mm 0 m/s 752 mmHg 94%
04:00 +23°C° 0.1 mm 1 m/s 752 mmHg 94%
05:00 +21°C° 0 mm 0 m/s 752 mmHg 94%
06:00 +21°C° 0 mm 0 m/s 752 mmHg 94%
07:00 +21°C° 0 mm 0 m/s 752 mmHg 94%
08:00 +25°C° 0.4 mm 1 m/s 753 mmHg 90%
09:00 +26°C° 0.4 mm 2 m/s 753 mmHg 86%
10:00 +27°C° 0.4 mm 2 m/s 753 mmHg 82%
11:00 +28°C° 0.9 mm 3 m/s 753 mmHg 80%
12:00 +28°C° 0.9 mm 3 m/s 753 mmHg 79%
13:00 +28°C° 0.9 mm 4 m/s 752 mmHg 77%
14:00 +28°C° 0.2 mm 4 m/s 752 mmHg 76%
15:00 +28°C° 0.2 mm 4 m/s 751 mmHg 75%
16:00 +28°C° 0.2 mm 4 m/s 751 mmHg 73%
17:00 +27°C° 0 mm 3 m/s 751 mmHg 78%
18:00 +26°C° 0 mm 2 m/s 752 mmHg 83%
19:00 +24°C° 0 mm 1 m/s 752 mmHg 88%
20:00 +24°C° 0 mm 1 m/s 752 mmHg 89%
21:00 +24°C° 0 mm 1 m/s 753 mmHg 90%
22:00 +22°C° 0 mm 0 m/s 753 mmHg 90%
23:00 +21°C° 0 mm 0 m/s 753 mmHg 91%

Après-demain, 22 Juin, Mardi

Heure Température Précipitation Vent Pression Humidité
00:00 +21°C° 0 mm 0 m/s 753 mmHg 91%
01:00 +21°C° 0 mm 0 m/s 752 mmHg 92%
02:00 +21°C° 0 mm 0 m/s 752 mmHg 92%
03:00 +23°C° 0 mm 1 m/s 752 mmHg 93%
04:00 +22°C° 0 mm 1 m/s 752 mmHg 93%
05:00 +21°C° 0 mm 0 m/s 752 mmHg 93%
06:00 +21°C° 0 mm 0 m/s 752 mmHg 92%
07:00 +21°C° 0 mm 0 m/s 753 mmHg 92%
08:00 +23°C° 0 mm 0 m/s 753 mmHg 86%
09:00 +26°C° 0 mm 1 m/s 753 mmHg 80%
10:00 +28°C° 0 mm 1 m/s 753 mmHg 74%
11:00 +29°C° 0.1 mm 2 m/s 753 mmHg 70%
12:00 +29°C° 0.1 mm 2 m/s 753 mmHg 67%
13:00 +30°C° 0.1 mm 3 m/s 752 mmHg 63%
14:00 +30°C° 0 mm 3 m/s 752 mmHg 64%
15:00 +30°C° 0 mm 3 m/s 751 mmHg 65%
16:00 +29°C° 0 mm 3 m/s 751 mmHg 66%
17:00 +28°C° 0 mm 2 m/s 751 mmHg 74%
18:00 +26°C° 0 mm 2 m/s 751 mmHg 81%
19:00 +25°C° 0 mm 1 m/s 752 mmHg 88%
20:00 +24°C° 0 mm 1 m/s 752 mmHg 90%
21:00 +24°C° 0 mm 1 m/s 752 mmHg 91%
22:00 +24°C° 0 mm 1 m/s 753 mmHg 93%
23:00 +24°C° 0 mm 1 m/s 752 mmHg 93%

23 Juin, Mercredi

Heure Température Précipitation Vent Pression Humidité
00:00 +23°C° 0 mm 1 m/s 752 mmHg 94%
01:00 +23°C° 0 mm 1 m/s 752 mmHg 95%
02:00 +23°C° 0 mm 1 m/s 752 mmHg 95%
03:00 +23°C° 0 mm 1 m/s 752 mmHg 95%
04:00 +23°C° 0 mm 1 m/s 751 mmHg 96%
05:00 +23°C° 0 mm 1 m/s 752 mmHg 95%
06:00 +23°C° 0 mm 1 m/s 752 mmHg 95%
07:00 +23°C° 0 mm 1 m/s 752 mmHg 95%
08:00 +24°C° 0.1 mm 1 m/s 752 mmHg 89%
09:00 +26°C° 0.1 mm 1 m/s 753 mmHg 83%
10:00 +28°C° 0.1 mm 2 m/s 753 mmHg 77%
11:00 +28°C° 1.2 mm 2 m/s 753 mmHg 78%
12:00 +28°C° 1.2 mm 3 m/s 752 mmHg 79%
13:00 +28°C° 1.2 mm 3 m/s 752 mmHg 80%
14:00 +28°C° 1.2 mm 3 m/s 752 mmHg 82%
15:00 +27°C° 1.2 mm 3 m/s 751 mmHg 83%
16:00 +27°C° 1.2 mm 3 m/s 751 mmHg 84%
17:00 +26°C° 1 mm 3 m/s 751 mmHg 87%
18:00 +25°C° 1 mm 2 m/s 752 mmHg 90%
19:00 +24°C° 1 mm 2 m/s 752 mmHg 92%
20:00 +24°C° 0.8 mm 2 m/s 752 mmHg 93%
21:00 +24°C° 0.8 mm 2 m/s 753 mmHg 93%
22:00 +24°C° 0.8 mm 2 m/s 753 mmHg 93%
23:00 +24°C° 0.5 mm 2 m/s 753 mmHg 94%

24 Juin, Jeudi

Heure Température Précipitation Vent Pression Humidité
00:00 +24°C° 0.5 mm 1 m/s 753 mmHg 94%
01:00 +23°C° 0.5 mm 1 m/s 752 mmHg 95%
02:00 +23°C° 0.1 mm 1 m/s 752 mmHg 95%
03:00 +23°C° 0.1 mm 1 m/s 752 mmHg 95%
04:00 +23°C° 0.1 mm 1 m/s 751 mmHg 95%
05:00 +23°C° 0.1 mm 1 m/s 751 mmHg 95%
06:00 +23°C° 0.1 mm 1 m/s 752 mmHg 95%
07:00 +23°C° 0.1 mm 1 m/s 752 mmHg 95%
08:00 +24°C° 0.6 mm 2 m/s 752 mmHg 91%
09:00 +25°C° 0.6 mm 3 m/s 753 mmHg 88%
10:00 +27°C° 0.6 mm 3 m/s 753 mmHg 84%
11:00 +27°C° 0.8 mm 4 m/s 753 mmHg 83%
12:00 +27°C° 0.8 mm 4 m/s 752 mmHg 82%
13:00 +28°C° 0.8 mm 5 m/s 752 mmHg 80%
14:00 +27°C° 1.3 mm 5 m/s 751 mmHg 82%
15:00 +27°C° 1.3 mm 4 m/s 751 mmHg 84%
16:00 +26°C° 1.3 mm 4 m/s 751 mmHg 86%
17:00 +25°C° 0.5 mm 4 m/s 751 mmHg 89%
18:00 +24°C° 0.5 mm 3 m/s 751 mmHg 91%
19:00 +24°C° 0.5 mm 2 m/s 751 mmHg 94%
20:00 +23°C° 0.3 mm 2 m/s 752 mmHg 94%
21:00 +23°C° 0.3 mm 2 m/s 752 mmHg 95%
22:00 +23°C° 0.3 mm 2 m/s 753 mmHg 96%
23:00 +23°C° 0.5 mm 2 m/s 753 mmHg 96%

25 Juin, Vendredi

Heure Température Précipitation Vent Pression Humidité
00:00 +23°C° 0.5 mm 2 m/s 752 mmHg 96%
01:00 +23°C° 0.5 mm 2 m/s 752 mmHg 97%
02:00 +23°C° 0.4 mm 2 m/s 752 mmHg 96%
03:00 +23°C° 0.4 mm 2 m/s 752 mmHg 95%
04:00 +22°C° 0.4 mm 3 m/s 751 mmHg 94%
05:00 +22°C° 0.2 mm 3 m/s 752 mmHg 93%
06:00 +22°C° 0.2 mm 3 m/s 752 mmHg 92%
07:00 +22°C° 0.2 mm 3 m/s 752 mmHg 91%
08:00 +24°C° 0 mm 3 m/s 753 mmHg 88%
09:00 +24°C° 0 mm 3 m/s 753 mmHg 85%
10:00 +25°C° 0 mm 4 m/s 753 mmHg 83%
11:00 +26°C° 0 mm 4 m/s 753 mmHg 79%
12:00 +26°C° 0 mm 4 m/s 753 mmHg 75%
13:00 +27°C° 0 mm 4 m/s 752 mmHg 71%
14:00 +27°C° 0 mm 4 m/s 752 mmHg 72%
15:00 +27°C° 0 mm 4 m/s 752 mmHg 73%
16:00 +26°C° 0 mm 4 m/s 751 mmHg 73%
17:00 +26°C° 0 mm 3 m/s 751 mmHg 75%
18:00 +25°C° 0 mm 3 m/s 752 mmHg 76%
19:00 +24°C° 0 mm 2 m/s 752 mmHg 78%
20:00 +24°C° 0 mm 2 m/s 752 mmHg 80%
21:00 +23°C° 0 mm 2 m/s 753 mmHg 82%
22:00 +21°C° 0 mm 2 m/s 753 mmHg 84%
23:00 +21°C° 0 mm 2 m/s 753 mmHg 85%
Voir plus

Nous avons besoin de votre consentement

Meteoprog et ses fournisseurs de services peuvent stocker et accéder à des données personnelles telles que des cookies, des identifiants d'appareils ou d'autres technologies similaires sur votre appareil et traiter ces données pour personnaliser le contenu et les publicités, ainsi que pour fournir des fonctionnalités de médias sociaux et analyser le trafic.

  • Stocker et/ou accéder à des informations sur votre appareil

    Des cookies, des identifiants d'appareils ou d'autres informations peuvent être stockés ou accessibles sur votre appareil aux fins indiquées ci-dessus.

  • Annonces et contenus personnalisés, mesure des annonces et des contenus, connaissance de l'audience et développement de produits

    Les annonces et le contenu peuvent être personnalisés en fonction d'un profil. D'autres données peuvent être ajoutées pour mieux personnaliser les annonces et le contenu. Les performances des publicités et du contenu peuvent être mesurées. Il est possible d'obtenir des informations sur le public qui a vu les publicités et le contenu. Ces données peuvent être utilisées pour développer ou améliorer l'expérience de l'utilisateur, les systèmes et les logiciels.

En cliquant sur "J'accepte", vous autorisez l'utilisation de cookies, des identifiants d'appareils, des balises web ou d'autres technologies similaires. Vos paramètres peuvent être modifiés dans le navigateur de votre appareil.

Dans certains cas, des intérêts légitimes peuvent être invoqués plutôt qu'un consentement. Vous pouvez en savoir plus à ce sujet dans notre Politique de confidentialité et de cookies.